Penticton, British Columbia

9:01 PM PDT on May 28, 2017 (GMT -0700)
Penticton

Weather History for CYYF - February, 2013

Change the Weather History Date:

Sunday, February 24, 2013

  Actual Average Record
Temperature  
Mean Temperature 34 °F -  
Max Temperature 41 °F 48 °F 51 °F (1999)
Min Temperature 26 °F 29 °F 12 °F (2011)
Degree Days  
Heating Degree Days 32    
Moisture  
Dew Point 24 °F    
Average Humidity 57    
Maximum Humidity 65    
Minimum Humidity 39    
Precipitation  
Precipitation 0.00 in 0.03 in - ()
Sea Level Pressure  
Sea Level Pressure 30.19 in    
Wind  
Wind Speed 13 mph ()    
Max Wind Speed 30 mph    
Max Gust Speed 41 mph    
Visibility 15.0 miles    
Events      
Averages and records for this station are not official NWS values.
T = Trace of Precipitation, MM = Missing Value Source: Averaged Metar Reports

Daily Weather History Graph

Daily Weather History Graph

Search for Another Location

Airport or City:

Trip Planner

Search our weather history database for the weather conditions in past years. The results will help you decide how hot, cold, wet, or windy it might be!

Date:

Astronomy

Feb. 24, 2013 Rise Set
Actual Time 6:50 AM PST 5:33 PM PST
Civil Twilight 6:17 AM PST 6:06 PM PST
Nautical Twilight 5:40 AM PST 6:43 PM PST
Astronomical Twilight 5:03 AM PST 7:20 PM PST
Moon 4:50 PM PST (2/24) 5:52 AM PST (2/24)
Length of Visible Light 11h 48m
Length of Day
10h 43m
Waxing Gibbous, 99% of the Moon is Illuminated
Feb 24
Waxing Gibbous
Feb 25
Full
Mar 4
Last Quarter
Mar 11
New
Mar 19
First Quarter

Hourly Weather History & Observations

Time (PST) Temp. Windchill Dew Point Humidity Pressure Visibility Wind Dir Wind Speed Gust Speed Precip Events Conditions
12:00 AM 33.8 °F 27.0 °F 23.0 °F 65% 30.25 in 15.0 mi South 8.1 mph - N/A   Scattered Clouds
1:00 AM 33.8 °F 26.4 °F 23.0 °F 65% 30.26 in 15.0 mi South 9.2 mph - N/A   Mostly Cloudy
2:00 AM 33.8 °F - 21.2 °F 60% 30.25 in 15.0 mi Variable 2.3 mph - N/A   Mostly Cloudy
3:00 AM 33.8 °F 25.8 °F 23.0 °F 65% 30.24 in 15.0 mi SSE 10.4 mph - N/A   Mostly Cloudy
4:00 AM 36 °F - 23 °F 46% 30.23 in 15 mi South 11.5 mph - -   Overcast
4:00 AM 35.6 °F 27.1 °F 23.0 °F 60% 30.23 in 15.0 mi South 12.7 mph - N/A   Overcast
5:00 AM 35.6 °F 27.1 °F 23.0 °F 60% 30.23 in 15.0 mi SSE 12.7 mph 20.7 mph N/A   Overcast
6:00 AM 35.6 °F 26.2 °F 23.0 °F 60% 30.24 in 15.0 mi SSE 15.0 mph 20.7 mph N/A   Overcast
7:00 AM 35.6 °F 27.1 °F 23.0 °F 60% 30.25 in 15.0 mi SSE 12.7 mph 20.7 mph N/A   Overcast
8:00 AM 35.6 °F 25.5 °F 21.2 °F 56% 30.25 in 15.0 mi South 17.3 mph 23.0 mph N/A   Overcast
9:00 AM 35.6 °F 25.9 °F 21.2 °F 56% 30.26 in 15.0 mi South 16.1 mph 24.2 mph N/A   Overcast
10:00 AM 38 °F - 22 °F 39% 30.26 in 15 mi South 17.3 mph - -   Overcast
10:00 AM 37.4 °F 28.2 °F 21.2 °F 52% 30.26 in 15.0 mi South 16.1 mph 23.0 mph N/A   Overcast
11:00 AM 37.4 °F 27.2 °F 23.0 °F 56% 30.25 in 15.0 mi South 19.6 mph - N/A   Overcast
12:00 PM 39.2 °F 29.8 °F 23.0 °F 52% 30.25 in 15.0 mi South 18.4 mph - N/A   Overcast
1:00 PM 39.2 °F 30.2 °F 23.0 °F 52% 30.22 in 15.0 mi South 17.3 mph - N/A   Overcast
2:00 PM 39.2 °F 30.8 °F 24.8 °F 56% 30.21 in 15.0 mi South 15.0 mph 21.9 mph N/A   Overcast
3:00 PM 39.2 °F 29.0 °F 23.0 °F 52% 30.21 in 15.0 mi South 21.9 mph 28.8 mph N/A   Overcast
4:00 PM 39 °F - 26 °F 48% 30.19 in 15 mi South 21.9 mph - -   Overcast
4:00 PM 39.2 °F 28.7 °F 26.6 °F 61% 30.19 in 15.0 mi South 23.0 mph - N/A   Overcast
5:00 PM 39.2 °F 28.0 °F 26.6 °F 61% 30.15 in 15.0 mi South 26.5 mph 36.8 mph N/A   Mostly Cloudy
6:00 PM 39.2 °F 28.7 °F 26.6 °F 61% 30.13 in 15.0 mi South 23.0 mph 35.7 mph N/A   Overcast
7:00 PM 39.2 °F 27.8 °F 26.6 °F 61% 30.10 in 15.0 mi SSW 27.6 mph 38.0 mph N/A   Overcast
8:00 PM 41.0 °F 29.8 °F 26.6 °F 57% 30.07 in 15.0 mi SSW 29.9 mph 41.4 mph N/A   Overcast
9:00 PM 39.2 °F 28.5 °F 28.4 °F 65% 30.06 in 15.0 mi SSW 24.2 mph 31.1 mph N/A   Overcast
10:00 PM 40 °F - 28 °F 50% 30.03 in 15 mi South 19.6 mph - -   Overcast
10:00 PM 39.2 °F 29.8 °F 28.4 °F 65% 30.03 in 15.0 mi South 18.4 mph 27.6 mph N/A   Overcast
11:00 PM 41.0 °F 30.9 °F 26.6 °F 57% 29.99 in 15.0 mi South 24.2 mph 31.1 mph N/A   Overcast